Hourly Data Report for October 25, 2015

All times are specified in Local Standard Time (LST). Add 1 hour to adjust for Daylight Saving Time where and when it is observed.

ARVIAT A
NUNAVUT

61°05'38.000" N
94°04'18.000" W
10.40 m
2300427
71174
YEK

Download Data

Hourly Data (October 2015)
Hourly Data Report for October 25, 2015
Temp Definition
°C
Dew Point Temp Definition
°C
Rel Hum Definition
%
Wind Dir Definition
10's deg

Wind Spd Definition
km/h
Visibility Definition
km
Stn Press Definition
kPa
Hmdx Definition


Wind Chill Definition


Weather Definition


TIME
00:00 Legend Double Dagger -16.9 -19.0 84 30 35 16.1 101.69   -29 LegendNANA
01:00 Legend Double Dagger -16.8 -18.8 85 29 26 16.1 101.67   -28 LegendNANA
02:00 Legend Double Dagger -16.9 -18.9 85 29 30 16.1 101.65   -29 LegendNANA
03:00 Legend Double Dagger -16.7 -18.7 85 30 28 16.1 101.68   -28 LegendNANA
04:00 Legend Double Dagger -16.0 -18.1 84 30 39 16.1 101.67   -29 LegendNANA
05:00 Legend Double Dagger -16.8 -18.9 84 30 34 16.1 101.69   -29 LegendNANA
06:00 Legend Double Dagger -16.2 -18.3 84 30 35 16.1 101.70   -28 LegendNANA
07:00 Legend Double Dagger -15.0 -17.1 84 30 35 16.1 101.73   -27 LegendNANA
08:00 Legend Double Dagger -14.3 -16.4 84 29 32 16.1 101.73   -25 LegendNANA
09:00 Legend Double Dagger -13.7 -15.9 84 30 34 16.1 101.73   -25 LegendNANA
10:00 Legend Double Dagger -13.2 -15.1 86 30 35 16.1 101.73   -24 LegendNANA
11:00 Legend Double Dagger -12.9 -15.2 83 30 34 16.1 101.76   -24 LegendNANA
12:00 Legend Double Dagger -12.7 -15.1 83 30 35 16.1 101.77   -24 LegendNANA
13:00 Legend Double Dagger -12.4 -15.2 80 30 34 16.1 101.80   -23 LegendNANA
14:00 Legend Double Dagger -11.9 -14.7 80 30 39 16.1 101.77   -23 LegendNANA
15:00 Legend Double Dagger -12.1 -14.6 82 30 43 6.4 101.74   -24 Snow
16:00 Legend Double Dagger -13.2 -16.5 77 30 35 16.1 101.78   -24 LegendNANA
17:00 Legend Double Dagger -13.2 -15.5 83 30 37 16.1 101.77   -25 LegendNANA
18:00 Legend Double Dagger -12.2 -14.2 85 28 30 16.1 101.75   -22 Snow
19:00 Legend Double Dagger -11.3 -14.1 80 30 28 16.1 101.72   -21 LegendNANA
20:00 Legend Double Dagger -11.2 -14.0 80 30 37 16.1 101.67   -22 LegendNANA
21:00 Legend Double Dagger -11.9 -14.4 82 30 39 16.1 101.66   -23 LegendNANA
22:00 Legend Double Dagger -12.6 -15.2 81 30 37 16.1 101.61   -24 LegendNANA
23:00 Legend Double Dagger -12.8 -15.3 82 30 35 16.1 101.61   -24 LegendNANA

Notes on Data Quality.

Legend

  • E = Estimated
  • M = Missing
  • NA = Not Available
  • ‡ = Partner data that is not subject to review by the National Climate Archives
Date modified: